SCP
0 0 0 0 0 0 0 0 0 0 0 0 0 0 0 0 0 0 0 0 0 0 0 0 0 0 0 0 0 0 0 0 0 0 0 0 0 0 0 0 0 0 0
0 0 0 0 0 0 0 0 0 0 0 0 0 0 0 0 0 0 0 0 0 0 0 0 0 0 0 0 0 0 0 0 0 0 0 0 0 0 0 0 0 0 0
0 0 0 0 0 0 0 0 0 0 0 0 0 0 0 0 0 0 0 0 0 0 0 0 0 0 0 0 0 0 0 0 0 0 0 0 0 0 0 0 0 0 0
0 0 0 0 0 0 0 0 0 0 0 0 0 0 0 0 0 0 0 0 0 0 0 0 0 0 0 0 0 0 0 0 0 0 0 0 0 0 0 0 0 0 0
0 0 0 0 0 0 0 0 0 0 0 0 0 0 0 0 0 0 0 0 0 0 0 0 0 0 0 0 0 0 0 0 0 0 0 0 0 0 0 0 0 0 0
0 0 0 0 0 0 0 0 0 0 0 0 0 0 0 0 0 0 0 0 0 0 0 0 0 0 0 0 0 0 0 0 0 0 0 0 0 0 0 0 0 0 0
0 0 0 0 0 0 0 0 0 0 0 0 0 0 0 0 0 0 0 0 0 0 0 0 0 0 0 0 0 0 0 0 0 0 0 0 0 0 0 0 0 0 0
0 0 0 0 0 0 0 0 0 0 0 0 0 0 0 0 0 0 0 0 0 0 0 0 0 0 0 0 0 0 0 0 0 0 0 0 0 0 0 0 0 0 0
0 0 0 0 0 0 0 0 0 0 0 0 0 0 0 0 0 0 0 0 0 0 0 0 0 0 0 0 0 0 0 0 0 0 0 0 0 0 0 0 0 0 0
0 0 0 0 0 0 0 0 0 0 0 0 0 0 0 0 0 0 0 0 0 0 0 0 0 0 0 0 0 0 0 0 0 0 0 0 0 0 0 0 0 0 0
0 0 0 0 0 0 0 0 0 0 0 0 0 0 0 0 0 0 0 0 0 0 0 0 0 0 0 0 0 0 0 0 0 0 0 0 0 0 0 0 0 0 0
0 0 0 0 0 0 0 0 0 0 0 0 0 0 0 0 0 0 0 0 0 0 0 0 0 0 0 0 0 0 0 0 0 0 0 0 0 0 0 0 0 0 0
0 0 0 0 0 0 0 0 0 0 0 0 0 0 0 0 0 0 0 0 0 0 0 0 0 0 0 0 0 0 0 0 0 0 0 0 0 0 0 0 0 0 0
0 0 0 0 0 0 0 0 0 0 0 0 0 0 0 0 0 0 0 0 0 0 0 0 0 0 0 0 0 0 0 0 0 0 0 0 0 0 0 0 0 0 0
0 0 0 0 0 0 0 0 0 0 0 0 0 0 0 0 0 0 0 0 0 0 0 0 0 0 0 0 0 0 0 0 0 0 0 0 0 0 0 0 0 0 0
0 0 0 0 0 0 0 0 0 0 0 0 0 0 0 0 0 0 0 0 0 0 0 0 0 0 0 0 0 0 0 0 0 0 0 0 0 0 0 0 0 0 0
0 0 0 0 0 0 0 0 0 0 0 0 0 0 0 0 0 0 0 0 0 0 0 0 0 0 0 0 0 0 0 0 0 0 0 0 0 0 0 0 0 0 0
0 0 0 0 0 0 0 0 0 0 0 0 0 0 0 0 0 0 0 0 0 0 0 0 0 0 0 0 0 0 0 0 0 0 0 0 0 0 0 0 0 0 0
0 0 0 0 0 0 0 0 0 0 0 0 0 0 0 0 0 0 0 0 0 0 0 0 0 0 0 0 0 0 0 0 0 0 0 0 0 0 0 0 0 0 0
0 0 0 0 0 0 0 0 0 0 0 0 0 0 0 0 0 0 0 0 0 0 0 0 0 0 0 0 0 0 0 0 0 0 0 0 0 0 0 0 0 0 0
0 0 0 0 0 0 0 0 0 0 0 0 0 0 0 0 0 0 0 0 0 0 0 0 0 0 0 0 0 0 0 0 0 0 0 0 0 0 0 0 0 0 0
0 0 0 0 0 0 0 0 0 0 0 0 0 0 0 0 0 0 0 0 0 0 0 0 0 0 0 0 0 0 0 0 0 0 0 0 0 0 0 0 0 0 0
0 0 0 0 0 0 0 0 0 0 0 0 0 0 0 0 0 0 0 0 0 0 0 0 0 0 0 0 0 0 0 0 0 0 0 0 0 0 0 0 0 0 0
0 0 0 0 0 0 0 0 0 0 0 0 0 0 0 0 0 0 0 0 0 0 0 0 0 0 0 0 0 0 0 0 0 0 0 0 0 0 0 0 0 0 0
0 0 0 0 0 0 0 0 0 0 0 0 0 0 0 0 0 0 0 0 0 0 0 0 0 0 0 0 0 0 0 0 0 0 0 0 0 0 0 0 0 0 0
0 0 0 0 0 0 0 0 0 0 0 0 0 0 0 0 0 0 0 0 0 0 0 0 0 0 0 0 0 0 0 0 0 0 0 0 0 0 0 0 0 0 0
Wind_Speed
12 12 12 11 11 11 10 9 8 7 6 5 5 4 3 3 3 3 3 3 4 4 4 5 5 5 4 4 4 5 5 6 8 7 6 7 7 7 7 7 8 8 8
12 12 11 10 10 10 10 8 7 6 5 5 4 4 4 4 4 4 5 6 5 5 5 5 5 5 6 5 4 5 5 6 7 9 7 7 8 8 8 8 9 10 7
12 12 11 10 10 9 8 7 6 6 5 5 5 5 5 5 6 7 7 7 6 5 5 5 5 5 5 4 5 5 5 6 6 7 9 7 7 8 8 9 9 7 10
11 11 10 9 9 8 8 7 6 5 5 5 5 5 6 9 10 10 10 8 7 6 6 5 6 6 5 5 5 6 6 6 7 7 8 8 7 8 7 6 7 6 8
11 10 9 8 8 7 7 6 6 5 6 5 6 6 7 8 9 9 9 9 9 8 7 6 7 8 9 5 6 5 6 7 8 8 9 9 9 7 7 6 8 7 8
9 9 8 7 6 6 5 6 6 6 6 7 7 7 7 7 8 9 8 8 9 9 8 7 8 7 6 6 8 10 10 10 10 9 9 10 11 9 7 7 8 8 7
8 7 6 5 5 5 6 6 6 5 5 5 5 5 5 6 6 6 9 8 9 8 7 6 8 8 6 5 8 12 11 13 13 10 10 11 10 9 9 9 8 9 10
6 5 4 4 5 5 5 5 4 4 3 3 3 4 3 4 2 5 11 9 8 6 6 7 7 5 5 6 9 10 10 10 10 9 7 9 9 8 8 8 9 9 9
5 4 4 5 5 5 5 4 3 3 3 2 2 2 2 3 1 3 8 9 6 7 8 8 7 5 5 8 9 11 11 10 11 13 13 12 14 14 10 6 6 7 8
4 4 4 4 4 4 4 3 2 2 2 3 2 2 2 2 2 2 6 7 7 8 7 7 5 5 8 10 9 10 11 11 11 13 12 11 9 7 8 5 5 6 6
4 4 4 3 2 3 2 2 2 2 2 2 3 2 2 2 2 1 4 6 7 8 8 7 5 7 12 13 11 9 11 12 11 10 9 7 6 4 4 4 4 4 6
3 3 2 2 1 3 1 1 2 2 3 2 2 2 2 2 2 1 5 7 8 8 8 7 8 14 15 16 12 11 14 12 7 7 6 5 4 4 4 5 5 4 5
3 2 1 1 1 1 1 1 1 2 3 3 3 4 4 3 3 5 7 9 10 7 7 11 14 16 15 10 10 12 10 6 5 6 5 5 4 4 5 4 5 5 5
1 1 0 1 1 1 1 1 2 3 4 5 5 5 5 4 6 7 8 8 9 8 8 11 14 12 9 8 8 7 5 4 4 5 5 4 4 3 4 4 4 5 5
1 1 1 2 1 1 0 2 3 5 4 4 5 6 6 6 6 7 6 7 7 8 9 7 6 6 7 7 7 6 5 5 4 4 4 4 4 4 4 4 4 4 4
1 1 2 2 2 2 1 3 6 5 7 5 4 4 3 4 7 9 9 10 12 11 8 6 6 7 7 7 8 7 6 5 4 3 4 3 4 4 4 4 4 4 5
2 2 3 3 2 2 1 1 3 3 3 2 1 3 5 7 8 9 11 12 11 9 5 5 6 7 7 7 7 6 5 4 3 3 3 3 3 3 4 4 5 5 5
3 1 2 2 3 2 2 2 2 1 2 3 3 4 5 6 7 9 10 9 6 5 5 6 6 7 7 7 7 6 5 4 3 2 3 3 3 3 3 3 4 5 4
4 2 1 2 2 1 2 3 3 3 2 3 2 1 3 5 5 7 7 4 5 5 6 6 6 7 7 7 7 6 5 5 4 2 2 2 2 2 2 2 3 4 4
0 1 2 3 2 2 3 3 3 4 4 3 3 3 3 3 3 4 4 4 5 5 6 6 7 7 7 7 7 6 6 5 6 5 3 2 2 2 2 2 2 2 2
1 3 3 1 3 4 4 4 4 4 4 3 3 3 3 3 3 4 4 4 5 5 6 6 7 7 7 7 7 8 8 7 7 7 5 3 2 2 2 2 2 2 2
4 3 3 4 4 4 3 4 4 4 4 4 3 2 1 2 3 3 4 4 4 4 5 5 6 6 7 7 7 7 8 8 8 8 8 6 4 3 3 2 2 2 2
1 3 4 4 3 3 2 4 4 4 5 4 4 4 4 4 4 4 5 5 5 5 5 5 6 7 7 7 7 7 8 8 8 9 8 7 5 4 4 3 3 3 4
4 3 4 4 4 4 4 4 4 5 5 5 5 5 5 5 5 5 5 5 5 5 5 5 6 10 12 9 8 8 8 8 8 8 9 7 6 5 5 5 5 6 4
4 4 4 5 5 5 5 5 5 5 5 5 5 6 6 5 5 5 6 6 6 6 8 7 7 9 13 14 13 11 11 12 10 9 7 6 7 8 7 6 6 6 7
6 5 5 6 5 5 5 5 5 5 5 6 6 5 5 5 5 5 5 6 6 6 7 7 10 12 15 12 14 14 13 13 13 12 8 6 6 7 7 6 7 6 7
Wind_Direction
82 84 86 88 90 91 93 95 96 97 99 97 96 92 86 77 54 18 5 22 9 0 344 350 351 340 329 333 324 314 314 321 314 313 316 320 324 314 305 297 293 285 281
85 84 83 85 86 88 89 88 88 85 79 76 73 67 62 59 41 26 13 15 7 360 354 348 342 334 338 324 319 319 317 313 306 307 310 308 304 300 291 287 292 291 292
87 85 82 81 81 81 81 78 74 71 67 62 58 53 44 40 40 34 19 6 357 350 345 336 328 320 312 317 321 312 307 309 311 304 301 297 294 293 294 293 293 293 296
85 83 80 76 75 74 72 68 64 63 63 52 47 48 46 46 41 27 11 352 345 339 328 317 311 308 308 319 313 306 315 320 309 300 297 298 297 294 296 301 302 297 297
85 83 81 79 76 73 68 61 54 47 49 42 45 49 57 59 41 28 0 347 338 326 318 315 311 310 301 289 295 310 312 303 302 299 299 301 300 304 304 302 300 299 290
84 83 80 78 75 72 70 62 53 46 41 39 40 42 50 59 57 32 2 338 322 314 317 322 315 309 335 319 298 294 286 286 292 293 294 294 296 300 303 304 303 301 297
86 84 81 77 72 63 63 59 53 49 47 41 39 48 72 79 53 13 351 324 309 308 316 318 318 326 348 348 328 313 299 291 283 283 286 289 296 302 305 305 302 301 298
90 85 80 76 73 66 63 56 49 43 39 33 35 45 75 95 59 355 339 321 312 321 325 315 314 329 25 355 325 312 304 303 302 299 289 292 298 300 298 296 296 295 291
95 82 67 66 68 64 59 51 42 33 21 14 35 30 61 128 180 343 344 325 332 336 324 322 330 343 17 340 321 313 312 310 311 315 309 298 293 291 288 292 295 297 301
98 86 74 68 65 61 50 34 29 4 358 356 8 355 8 93 152 329 338 333 337 332 322 327 355 350 332 324 320 313 309 312 318 316 312 308 303 296 293 276 284 296 302
102 92 83 75 87 83 50 13 346 339 347 332 338 345 16 47 152 224 321 332 336 327 324 327 330 333 324 317 311 297 293 304 307 304 305 307 313 316 318 306 288 288 297
104 97 89 56 19 72 49 334 323 320 315 318 337 354 26 50 47 358 315 317 316 317 318 325 328 324 318 312 307 297 299 303 300 304 309 316 323 329 324 319 313 303 289
119 113 101 82 27 25 332 304 317 334 348 358 3 5 12 23 33 0 342 330 325 320 324 326 319 313 313 310 309 310 307 302 307 315 320 322 323 324 322 321 321 320 313
132 136 174 235 241 233 290 337 23 26 17 7 11 8 7 14 16 0 346 339 340 337 337 323 315 311 314 311 314 318 314 312 317 317 320 326 332 336 337 336 335 336 336
29 301 269 261 275 271 296 45 42 67 61 27 15 4 5 2 359 338 330 331 329 323 322 313 322 334 341 341 339 336 334 336 339 341 339 343 346 347 348 347 348 349 352
4 330 326 321 315 306 96 116 72 104 117 97 60 9 14 7 332 331 331 326 319 317 320 325 334 339 339 337 335 333 335 341 349 353 348 352 354 354 356 358 4 3 359
338 339 322 330 334 331 350 139 147 140 151 162 238 314 326 331 331 333 334 329 318 319 324 334 338 337 332 329 328 330 334 338 346 354 354 355 359 358 4 5 4 3 1
315 317 296 318 324 331 343 9 86 130 161 170 207 254 296 320 326 330 332 332 336 343 344 341 337 331 328 327 328 331 334 343 4 5 359 358 1 2 10 4 5 5 3
320 334 301 288 279 345 18 30 55 69 70 88 112 186 290 303 307 320 328 341 342 346 344 340 334 329 328 329 332 337 345 357 8 8 2 3 1 4 6 3 8 7 11
210 57 304 316 21 61 62 53 50 57 56 59 59 32 358 345 349 348 351 349 347 344 340 337 330 326 329 335 339 345 355 5 5 6 4 0 358 359 1 4 7 8 23
92 153 215 309 51 58 52 47 48 49 53 55 56 49 357 350 358 353 348 345 343 337 334 331 328 332 339 343 347 353 2 5 3 356 352 348 347 345 343 356 7 23 33
352 61 64 61 66 54 36 53 54 49 45 49 51 68 7 355 10 357 349 344 339 331 327 327 331 340 349 351 354 1 5 2 355 348 346 345 347 350 352 6 17 26 49
0 67 84 82 90 101 61 63 57 52 52 49 44 36 35 23 13 7 359 349 342 337 336 338 344 355 -0 356 358 12 7 352 336 331 338 341 351 360 355 357 17 33 33
45 53 73 81 79 83 72 64 59 58 57 51 46 42 39 29 20 10 360 351 349 351 353 355 2 4 8 10 4 8 5 344 330 326 330 339 2 7 4 5 16 25 32
49 49 65 73 70 74 72 66 61 61 61 57 53 48 40 31 22 14 7 1 360 1 4 10 14 11 7 13 12 3 348 343 346 340 334 350 14 14 10 17 27 30 29
49 49 67 77 70 66 71 74 69 66 66 63 60 53 42 35 27 19 9 3 2 5 10 13 23 26 14 8 4 358 353 352 351 349 349 3 21 22 13 20 35 37 37